When you browse on this site, cookies collect data to enhance your experience and personalize the content and advertising you see.
Visit our Privacy Policy to learn more. By continuing to use the site, you agree to this use of cookies and data.
  • In Hungary
  • List of Countries
  • For 7 days
  • Water Temperature
  • Satellite Maps
  • Weather Map
  • News
  • Weather Widgets
  • user-avatar
    Login

    Hourly Weather Matagalpa

    Today, 18 January, Friday

    Time Temperature Precipitation Wind Pressure Humidity
    00:00 +19°C° 0 mm 3 mps 683 mmHg 92%
    01:00 +18°C° 0 mm 3 mps 682 mmHg 92%
    02:00 +18°C° 0 mm 3 mps 682 mmHg 93%
    03:00 +18°C° 0 mm 3 mps 682 mmHg 93%
    04:00 +17°C° 0 mm 3 mps 682 mmHg 93%
    05:00 +17°C° 0 mm 3 mps 682 mmHg 93%
    06:00 +17°C° 0 mm 3 mps 682 mmHg 92%
    07:00 +19°C° 0 mm 4 mps 683 mmHg 84%
    08:00 +20°C° 0 mm 4 mps 683 mmHg 76%
    09:00 +22°C° 0 mm 5 mps 684 mmHg 68%
    10:00 +23°C° 0 mm 5 mps 684 mmHg 63%
    11:00 +26°C° 0 mm 6 mps 684 mmHg 57%
    12:00 +27°C° 0 mm 6 mps 683 mmHg 51%
    13:00 +27°C° 0 mm 6 mps 683 mmHg 51%
    14:00 +28°C° 0 mm 6 mps 682 mmHg 51%
    15:00 +28°C° 0 mm 6 mps 681 mmHg 51%
    16:00 +26°C° 0 mm 5 mps 681 mmHg 60%
    17:00 +23°C° 0 mm 4 mps 681 mmHg 69%
    18:00 +21°C° 0 mm 3 mps 681 mmHg 79%
    19:00 +20°C° 0 mm 3 mps 681 mmHg 83%
    20:00 +20°C° 0 mm 3 mps 681 mmHg 87%
    21:00 +19°C° 0 mm 3 mps 682 mmHg 91%
    22:00 +19°C° 0 mm 3 mps 682 mmHg 92%
    23:00 +19°C° 0 mm 3 mps 682 mmHg 93%

    Tomorrow, 19 January, Saturday

    Time Temperature Precipitation Wind Pressure Humidity
    00:00 +18°C° 0 mm 3 mps 682 mmHg 93%
    01:00 +18°C° 0 mm 3 mps 681 mmHg 94%
    02:00 +18°C° 0 mm 3 mps 681 mmHg 94%
    03:00 +17°C° 0 mm 2 mps 681 mmHg 95%
    04:00 +17°C° 0 mm 2 mps 681 mmHg 95%
    05:00 +17°C° 0 mm 2 mps 681 mmHg 94%
    06:00 +17°C° 0 mm 2 mps 681 mmHg 94%
    07:00 +19°C° 0 mm 3 mps 682 mmHg 84%
    08:00 +21°C° 0 mm 3 mps 683 mmHg 75%
    09:00 +22°C° 0 mm 4 mps 684 mmHg 65%
    10:00 +25°C° 0 mm 4 mps 683 mmHg 58%
    11:00 +26°C° 0 mm 4 mps 683 mmHg 51%
    12:00 +28°C° 0 mm 5 mps 683 mmHg 43%
    13:00 +28°C° 0 mm 5 mps 682 mmHg 44%
    14:00 +28°C° 0 mm 4 mps 681 mmHg 45%
    15:00 +28°C° 0 mm 4 mps 681 mmHg 46%
    16:00 +26°C° 0 mm 4 mps 680 mmHg 55%
    17:00 +24°C° 0 mm 3 mps 680 mmHg 65%
    18:00 +21°C° 0 mm 2 mps 680 mmHg 74%
    19:00 +20°C° 0 mm 2 mps 681 mmHg 80%
    20:00 +19°C° 0 mm 2 mps 681 mmHg 87%
    21:00 +18°C° 0 mm 2 mps 681 mmHg 93%
    22:00 +18°C° 0 mm 2 mps 681 mmHg 94%
    23:00 +18°C° 0 mm 2 mps 681 mmHg 95%

    Day after tomorrow, 20 January, Sunday

    Time Temperature Precipitation Wind Pressure Humidity
    00:00 +17°C° 0 mm 2 mps 681 mmHg 96%
    01:00 +17°C° 0 mm 2 mps 681 mmHg 96%
    02:00 +17°C° 0 mm 2 mps 681 mmHg 97%
    03:00 +17°C° 0 mm 2 mps 681 mmHg 97%
    04:00 +17°C° 0 mm 2 mps 681 mmHg 96%
    05:00 +17°C° 0 mm 2 mps 681 mmHg 96%
    06:00 +17°C° 0 mm 2 mps 682 mmHg 95%
    07:00 +19°C° 0 mm 3 mps 683 mmHg 84%
    08:00 +21°C° 0 mm 3 mps 684 mmHg 73%
    09:00 +23°C° 0 mm 4 mps 684 mmHg 61%
    10:00 +26°C° 0 mm 5 mps 684 mmHg 52%
    11:00 +27°C° 0 mm 6 mps 684 mmHg 43%
    12:00 +29°C° 0 mm 6 mps 684 mmHg 34%
    13:00 +29°C° 0 mm 6 mps 683 mmHg 34%
    14:00 +29°C° 0 mm 6 mps 682 mmHg 34%
    15:00 +29°C° 0 mm 7 mps 681 mmHg 34%
    16:00 +27°C° 0 mm 6 mps 682 mmHg 40%
    17:00 +25°C° 0 mm 5 mps 682 mmHg 46%
    18:00 +22°C° 0 mm 5 mps 682 mmHg 53%
    19:00 +22°C° 0 mm 5 mps 682 mmHg 60%
    20:00 +21°C° 0 mm 5 mps 683 mmHg 66%
    21:00 +20°C° 0 mm 5 mps 683 mmHg 73%
    22:00 +20°C° 0 mm 5 mps 683 mmHg 73%
    23:00 +19°C° 0 mm 5 mps 683 mmHg 73%

    21 January, Monday

    Time Temperature Precipitation Wind Pressure Humidity
    00:00 +18°C° 0 mm 4 mps 683 mmHg 74%
    01:00 +18°C° 0 mm 4 mps 682 mmHg 77%
    02:00 +18°C° 0 mm 4 mps 682 mmHg 81%
    03:00 +17°C° 0 mm 4 mps 681 mmHg 85%
    04:00 +18°C° 0 mm 4 mps 682 mmHg 85%
    05:00 +17°C° 0 mm 5 mps 682 mmHg 85%
    06:00 +17°C° 0 mm 5 mps 682 mmHg 85%
    07:00 +19°C° 0 mm 6 mps 683 mmHg 79%
    08:00 +21°C° 0 mm 7 mps 684 mmHg 72%
    09:00 +22°C° 0 mm 8 mps 685 mmHg 66%
    10:00 +23°C° 0 mm 8 mps 684 mmHg 63%
    11:00 +23°C° 0 mm 8 mps 684 mmHg 60%
    12:00 +24°C° 0 mm 7 mps 683 mmHg 58%
    13:00 +26°C° 0 mm 7 mps 683 mmHg 57%
    14:00 +26°C° 0 mm 7 mps 682 mmHg 56%
    15:00 +26°C° 0 mm 7 mps 682 mmHg 55%
    16:00 +24°C° 0 mm 7 mps 682 mmHg 63%
    17:00 +22°C° 0 mm 6 mps 682 mmHg 71%
    18:00 +20°C° 0 mm 6 mps 682 mmHg 79%
    19:00 +20°C° 0 mm 6 mps 683 mmHg 81%
    20:00 +19°C° 0 mm 6 mps 683 mmHg 82%
    21:00 +19°C° 0 mm 6 mps 683 mmHg 84%
    22:00 +17°C° 0 mm 6 mps 683 mmHg 84%
    23:00 +17°C° 0 mm 6 mps 683 mmHg 84%

    22 January, Tuesday

    Time Temperature Precipitation Wind Pressure Humidity
    00:00 +17°C° 0 mm 6 mps 683 mmHg 83%
    01:00 +17°C° 0 mm 5 mps 682 mmHg 84%
    02:00 +17°C° 0 mm 5 mps 682 mmHg 85%
    03:00 +17°C° 0 mm 5 mps 681 mmHg 86%
    04:00 +17°C° 0 mm 5 mps 682 mmHg 86%
    05:00 +18°C° 0 mm 4 mps 682 mmHg 86%
    06:00 +18°C° 0 mm 4 mps 682 mmHg 87%
    07:00 +19°C° 0 mm 5 mps 683 mmHg 82%
    08:00 +20°C° 0 mm 5 mps 683 mmHg 78%
    09:00 +21°C° 0 mm 6 mps 684 mmHg 74%
    10:00 +23°C° 0 mm 6 mps 684 mmHg 68%
    11:00 +24°C° 0 mm 6 mps 684 mmHg 62%
    12:00 +26°C° 0 mm 6 mps 683 mmHg 57%
    13:00 +26°C° 0 mm 6 mps 683 mmHg 58%
    14:00 +26°C° 0 mm 6 mps 682 mmHg 60%
    15:00 +24°C° 0 mm 6 mps 681 mmHg 62%
    16:00 +23°C° 0 mm 5 mps 681 mmHg 69%
    17:00 +22°C° 0 mm 4 mps 681 mmHg 75%
    18:00 +20°C° 0 mm 4 mps 681 mmHg 82%
    19:00 +20°C° 0 mm 4 mps 681 mmHg 85%
    20:00 +19°C° 0 mm 4 mps 682 mmHg 88%
    21:00 +18°C° 0 mm 4 mps 682 mmHg 91%
    22:00 +18°C° 0 mm 4 mps 682 mmHg 92%
    23:00 +18°C° 0 mm 4 mps 682 mmHg 92%

    23 January, Wednesday

    Time Temperature Precipitation Wind Pressure Humidity
    00:00 +18°C° 0 mm 4 mps 682 mmHg 93%
    01:00 +18°C° 0 mm 3 mps 681 mmHg 92%
    02:00 +17°C° 0 mm 3 mps 681 mmHg 92%
    03:00 +17°C° 0 mm 3 mps 681 mmHg 91%
    04:00 +17°C° 0 mm 3 mps 681 mmHg 92%
    05:00 +17°C° 0 mm 3 mps 681 mmHg 92%
    06:00 +16°C° 0 mm 2 mps 681 mmHg 92%
    07:00 +18°C° 0 mm 3 mps 682 mmHg 85%
    08:00 +20°C° 0 mm 4 mps 683 mmHg 79%
    09:00 +22°C° 0 mm 4 mps 684 mmHg 72%
    10:00 +23°C° 0 mm 4 mps 683 mmHg 65%
    11:00 +26°C° 0 mm 4 mps 683 mmHg 58%
    12:00 +27°C° 0 mm 5 mps 683 mmHg 51%
    13:00 +28°C° 0 mm 5 mps 682 mmHg 52%
    14:00 +28°C° 0 mm 5 mps 682 mmHg 53%
    15:00 +28°C° 0 mm 5 mps 681 mmHg 54%
    16:00 +26°C° 0 mm 4 mps 681 mmHg 62%
    17:00 +24°C° 0 mm 3 mps 681 mmHg 71%
    18:00 +21°C° 0 mm 3 mps 681 mmHg 80%
    19:00 +20°C° 0 mm 2 mps 681 mmHg 84%
    20:00 +19°C° 0 mm 2 mps 681 mmHg 89%
    21:00 +18°C° 0 mm 2 mps 682 mmHg 94%
    22:00 +18°C° 0 mm 2 mps 681 mmHg 94%
    23:00 +18°C° 0 mm 2 mps 681 mmHg 95%
    Show more